This is the latest recevied weather packets stored in our database for station/object KC9DNQ-3. If no packets are shown the sender has not sent any weather packets the latest 10 day(s).
| Time | Temp. | Humidity | Pressure | Rain* | Wind** | Luminosity | Snow |
|---|---|---|---|---|---|---|---|
| 1778084708 | 13.33° C | 41% | 1013.5 hPa | 0 mm | - | 548 W/m² | - |
| 1778084410 | 13.33° C | 36% | 1013.5 hPa | 0 mm | - | 487 W/m² | - |
| 1778084108 | 13.89° C | 42% | 1013.5 hPa | 0 mm | - | 770 W/m² | - |
| 1778083809 | 13.89° C | 44% | 1013.5 hPa | 0 mm | - | 737 W/m² | - |
| 1778083510 | 13.89° C | 41% | 1013.5 hPa | 0 mm | - | 932 W/m² | - |
| 1778083209 | 13.33° C | 45% | 1013.5 hPa | 0 mm | - | 969 W/m² | - |
| 1778082909 | 12.78° C | 40% | 1013.5 hPa | 0 mm | - | 759 W/m² | - |
| 1778082610 | 12.78° C | 41% | 1013.5 hPa | 0 mm | - | 606 W/m² | - |
| 1778082309 | 12.78° C | 41% | 1013.5 hPa | 0 mm | - | 640 W/m² | - |
| 1778082010 | 12.78° C | 46% | 1013.5 hPa | 0 mm | - | 464 W/m² | - |
| 1778081709 | 12.78° C | 49% | 1013.5 hPa | 0 mm | - | 533 W/m² | - |
| 1778081409 | 12.78° C | 45% | 1013.5 hPa | 0 mm | - | 570 W/m² | - |
| 1778081109 | 12.78° C | 52% | 1013.4 hPa | 0 mm | - | 462 W/m² | - |
| 1778080809 | 12.22° C | 46% | 1013.4 hPa | 0 mm | - | 461 W/m² | - |
| 1778080509 | 12.22° C | 50% | 1013.5 hPa | 0 mm | - | 392 W/m² | - |
| 1778080209 | 12.22° C | 53% | 1013.5 hPa | 0 mm | - | 380 W/m² | - |
| 1778079909 | 11.67° C | 55% | 1013.6 hPa | 0 mm | - | 571 W/m² | - |
| 1778079609 | 11.67° C | 55% | 1013.6 hPa | 0 mm | - | 424 W/m² | - |
| 1778079309 | 11.67° C | 56% | 1013.6 hPa | 0 mm | - | 329 W/m² | - |
| 1778079010 | 11.11° C | 58% | 1013.7 hPa | 0 mm | - | 338 W/m² | - |
| 1778078709 | 11.11° C | 56% | 1013.6 hPa | 0 mm | - | 313 W/m² | - |
| 1778078410 | 11.11° C | 58% | 1013.5 hPa | 0 mm | - | 355 W/m² | - |
| 1778078108 | 11.11° C | 55% | 1013.5 hPa | 0 mm | - | 334 W/m² | - |
| 1778077810 | 11.11° C | 58% | 1013.5 hPa | 0 mm | - | 399 W/m² | - |
| 1778077510 | 11.11° C | 59% | 1013.5 hPa | 0 mm | - | 339 W/m² | - |
* Rain latest hour (hover to see other rain measurements)
** Current wind speed in m/s (hover to see current wind gust speed)